Regional Weather Roundup
Issued by NWS

Home | Current Version | Previous Version | Graphics & Text | Print | Product List | Glossary On
Versions: 1 2 3 4 5 6 7 8 9 10 11 12 13 14 15 16 17 18 19 20 21 22 23 24 25 26 27 28 29 30 31 32 33 34 35 36 37 38 39 40 41 42 43 44 45 46 47 48 49 50
773
ASUS43 KTOP 221408
RWRKS

WEATHER ROUNDUP FOR KANSAS
NATIONAL WEATHER SERVICE GOODLAND KS
900 AM CDT WED MAR 22 2017

NOTE:  "FAIR" INDICATES FEW OR NO CLOUDS BELOW 12,000 FEET WITH NO
SIGNIFICANT WEATHER AND/OR OBSTRUCTIONS TO VISIBILITY.

KSZ001>006-013>018-027>032-041>047-221500-
NORTHWEST KANSAS

CITY           SKY/WX    TMP DP  RH WIND       PRES   REMARKS
GOODLAND       CLOUDY    37  31  78 S16       30.19F WCI  28
HAYS             N/A     41  25  53 E9        30.28F
HILL CITY      CLOUDY    39  26  59 E8        30.29R
RUSSELL        CLOUDY    41  25  53 E13       30.27R
$$

KSZ061>065-074>080-084>089-221500-
SOUTHWEST KANSAS

CITY           SKY/WX    TMP DP  RH WIND       PRES   REMARKS
DODGE CITY     CLOUDY    42  27  55 E12       30.25R
ELKHART          N/A     41  31  68 SE3         N/A
GARDEN CITY    CLOUDY    41  29  62 E13       30.22S
GREAT BEND     CLOUDY    43  24  47 E14       30.27R
LIBERAL        CLOUDY    46  27  46 E13       30.22R
PRATT          CLOUDY    42  22  46 E9        30.25R
$$

KSZ066>073-081>083-090>101-221500-
SOUTHEAST KANSAS

CITY           SKY/WX    TMP DP  RH WIND       PRES   REMARKS
CHANUTE        MOSUNNY   47  27  45 E15G25    30.28F
COFFEYVILLE    CLOUDY    50  29  44 E14       30.27S
HUTCHINSON     CLOUDY    45  24  43 E12       30.27R
MEDICINE LODGE   N/A     46  26  45 E8        30.24S
PARSONS        CLOUDY    49  25  39 E8        30.29S
WICHITA INTL   CLOUDY    48  24  39 E12       30.26R
WICHITA JABRA  CLOUDY    47  24  40 E9        30.25R
WICHITA MCCONL CLOUDY    47  22  37 E17       30.24R
WINFIELD       CLOUDY    49  26  41 E10       30.25R
$$

KSZ007>012-019>026-033>040-048>060-102>105-221500-
NORTHEAST KANSAS

CITY           SKY/WX    TMP DP  RH WIND       PRES   REMARKS
CONCORDIA      SUNNY     38  26  62 E12       30.33S WCI  30
EMPORIA        CLOUDY    42  25  50 E21       30.26F
LAWRENCE       CLOUDY    40  24  53 E14       30.34F WCI  32
MANHATTAN      CLOUDY    41  25  53 NE8       30.35R
MARYSVILLE     CLOUDY    37  23  56 E9        30.36S
OLATHE IND     MOSUNNY   40  21  46 E14       30.35F WCI  32
OLATHE EXE     PTSUNNY   40  23  50 E8        30.37S
SALINA         SUNNY     44  25  47 E9        30.31S
TOPEKA BILLARD PTSUNNY   40  25  55 E14       30.33F WCI  32
TOPEKA FORBES  MOSUNNY   42  24  49 E14       30.31F
$$




USA.gov is the U.S. government's official web portal to all federal, state and local government web resources and services.